Weather Service Report


368 
ASUS45 KBOI 280710
RWRID 

IDAHO REGIONAL WEATHER ROUNDUP
NATIONAL WEATHER SERVICE BOISE ID
100 AM MDT FRI AUG 28 2015

NOTE: "FAIR" INDICATES FEW OR NO CLOUDS BELOW 12000 FEET
WITH NO SIGNIFICANT WEATHER AND/OR OBSTRUCTIONS TO VISIBILITY

IDZ012-014-280800-
SOUTHWEST IDAHO

  
CITY           SKY/WX    TMP DP  RH WIND       PRES   REMARKS
BOISE          PTCLDY    76  36  23 SE9       30.01F                  
CALDWELL       PTCLDY    63  45  51 E3        30.01S                  
MOUNTAIN HOME  PTCLDY    66  35  31 E2        30.04S                  
$$

IDZ016-017-280800-
SOUTHCENTRAL IDAHO

  
CITY           SKY/WX    TMP DP  RH WIND       PRES   REMARKS
BURLEY         CLEAR     60  44  55 SE5       30.13S                  
JEROME         PTCLDY    66  41  40 E8        30.12F                  
TWIN FALLS     PTCLDY    68  34  28 S13       30.13S                  
$$

IDZ019>023-280800-
SOUTHEAST IDAHO

  
CITY           SKY/WX    TMP DP  RH WIND       PRES   REMARKS
IDAHO FALLS    CLEAR     62  42  47 S7        30.17R                  
POCATELLO      CLEAR     72  34  24 S9        30.16R                  
REXBURG        PTCLDY    54  43  66 N5        30.18R                  
$$

IDZ006-010-011-018-031-032-280800-
CENTRAL IDAHO MOUNTAINS

  
CITY           SKY/WX    TMP DP  RH WIND       PRES   REMARKS
MCCALL         PTCLDY    55  36  48 CALM      30.17F                  
HAILEY         PTCLDY    59  37  44 NW9       30.24R                  
STANLEY          N/A     48  27  44 CALM      30.32F                  
SALMON         CLOUDY    63  41  45 CALM      30.14R                  
CHALLIS        CLOUDY    56  30  37 CALM      30.21R                  
$$

IDZ002-004-006-007-026-280800-
NORTHERN IDAHO

  
CITY           SKY/WX    TMP DP  RH WIND       PRES   REMARKS
LEWISTON       PTCLDY    73  41  31 W5        29.96S                  
LOWELL           N/A     60  53  77 N3        30.05R                  
COEUR D'ALENE  CLEAR     63  41  45 N3        29.99S                  
MULLAN PASS    CLEAR     61  35  37 SW9       30.22F                  
$$

Return to Home page


Western Regional Climate Center, wrcc@dri.edu